Current Weather Conditions: station 44139

sailwx.info

Wind from 210 at 17 knots gusting 19

Wave height 1.6 meters (5 feet), 8 second period

Air temperature 11.5° C
Water temperature 6.2° C

Last reported at 2015-May-27 19:00 UTC.
Time now 2015-May-27 20:03 UTC

Location: N 44°12' W 057°06'.
View on Google Maps.

See reports from other nearby stations

  
Tides and Currents Weather Stations Pressure Air Temp Water Temp Dewpoint Dewpoint Depression Visibility Wind Speed Wind Dir Waves Ship Positions
date/time (UTC)wind fromknots sea level pressurealtimeterstation pressurevisibilityair tempwater tempwave heightnotes
2015-May-27 19:00 210 17 gusting 19 11.5 6.2 1.6
2015-May-27 18:00 210 15 gusting 17 11.2 6.1 1.7
2015-May-27 17:00 210 15 gusting 19 11.6 6.3 1.6
2015-May-27 16:00 210 17 gusting 19 11.8 7.8 1.5
2015-May-27 15:00 200 17 gusting 19 11.7 7.6 1.6
2015-May-27 14:00 200 17 gusting 19 11.9 6.2 1.6
2015-May-27 13:00 200 19 gusting 21 11.8 5.9 1.5
2015-May-27 12:00 200 17 gusting 19 11.2 5.9 1.5
2015-May-27 11:00 200 17 gusting 19 10.8 6.0 1.4
2015-May-27 10:00 200 15 gusting 17 10.6 5.7 1.3
2015-May-27 09:00 200 15 gusting 17 10.5 5.7 1.4
2015-May-27 08:00 200 15 gusting 19 10.4 5.8 1.3
2015-May-27 06:00 190 13 gusting 15 9.7 5.7 1.2
2015-May-27 05:00 190 9 gusting 11 9.3 5.8 1.1
2015-May-27 04:00 200 9 gusting 9 9.6 5.9 1.2
2015-May-27 03:00 190 15 gusting 15 10.3 5.8 1.1
2015-May-27 02:00 190 15 gusting 15 10.3 5.8 1.0
2015-May-27 01:00 190 13 gusting 15 10.0 5.8 1.0
2015-May-27 00:00 190 11 gusting 11 9.4 5.8 1.1
2015-May-26 23:00 190 11 gusting 11 9.4 5.8 1.2
2015-May-26 22:00 200 9 gusting 11 9.5 5.9 1.2
2015-May-26 21:00 190 11 gusting 11 9.3 5.9 1.2
2015-May-26 20:00 210 13 gusting 13 10.4 5.9 1.3
2015-May-26 19:00 200 9 gusting 11 9.6 5.8 1.2
2015-May-26 18:00 210 11 gusting 11 9.8 5.9 1.3
2015-May-26 17:00 210 11 gusting 13 9.7 5.7 1.3
2015-May-26 16:00 210 11 gusting 13 9.3 5.5 1.3
2015-May-26 15:00 210 11 gusting 13 9.4 5.5 1.4
2015-May-26 14:00 220 13 gusting 15 9.7 5.4 1.5
2015-May-26 13:00 220 13 gusting 17 9.6 5.3 1.4
2015-May-26 12:00 210 13 gusting 15 9.2 5.5 1.7
2015-May-26 11:00 210 15 gusting 17 9.5 5.5 1.6
2015-May-26 10:00 210 11 gusting 13 8.9 5.5 1.6
2015-May-26 09:00 220 11 gusting 13 9.2 5.5 1.6
2015-May-26 08:00 210 13 gusting 15 8.9 5.5 1.6
2015-May-26 07:00 210 11 gusting 13 8.8 5.6 1.5
2015-May-26 06:00 230 13 gusting 15 9.2 5.6 1.6
2015-May-26 05:00 230 15 gusting 17 9.3 5.6 1.6
2015-May-26 04:00 220 13 gusting 15 9.0 5.6 1.6
2015-May-26 03:00 220 15 gusting 15 9.1 5.6 1.6
2015-May-26 02:00 230 15 gusting 17 9.4 5.6 1.8
2015-May-26 00:00 230 13 gusting 15 8.9 5.7 1.6
2015-May-25 23:00 220 11 gusting 15 8.7 5.7 1.6
2015-May-25 22:00 210 11 gusting 13 8.5 5.7 1.7
2015-May-25 21:00 220 11 gusting 13 8.6 5.8 1.7
2015-May-25 20:00 210 11 gusting 13 8.8 5.7 1.8